Location: Miss�
(46.9484°N, 0.1922°W)
Time: 21:31:27
(UTC+00:00)

Cosmos 1515 - Pass Details

Date: 02 March 2021
Orbit: 504 x 516 km, 82.5° (Epoch: 14 April)

Event Time Altitude Azimuth Distance (km) Brightness Sun altitude
Rises 18:10:53 0° 359° (N) 2,647 7.3 -4.7°
Reaches altitude 10° 18:13:13 10° 10° (N) 1,754 6.2 -5.1°
Maximum altitude 18:16:39 31° 74° (ENE) 929 4.5 -5.7°
Drops below altitude 10° 18:20:04 10° 138° (SE) 1,735 6.0 -6.3°
Sets 18:22:22 0° 149° (SSE) 2,614 7.0 -6.7°
